This is the latest recevied weather packets stored in our database for station/object SP8EBC-11. If no packets are shown the sender has not sent any weather packets the latest 1 day(s).
| Time | Temp. | Humidity | Pressure | Rain* | Wind** | Luminosity | Snow |
|---|---|---|---|---|---|---|---|
| 1778003652 | 17.78° C | 65% | 990.7 hPa | - | 3.13 m/s, 72° | - | - |
| 1778003532 | 17.78° C | 65% | 990.7 hPa | - | 2.24 m/s, 70° | - | - |
| 1778003412 | 17.78° C | 65% | 990.6 hPa | - | 3.13 m/s, 70° | - | - |
| 1778003292 | 17.78° C | 65% | 990.6 hPa | - | 3.58 m/s, 70° | - | - |
| 1778003171 | 17.78° C | 65% | 990.6 hPa | - | 3.13 m/s, 67° | - | - |
| 1778003051 | 17.78° C | 65% | 990.6 hPa | - | 3.13 m/s, 65° | - | - |
| 1778002931 | 17.78° C | 65% | 990.5 hPa | - | 2.68 m/s, 58° | - | - |
| 1778002811 | 17.78° C | 65% | 990.5 hPa | - | 2.68 m/s, 57° | - | - |
| 1778002691 | 18.33° C | 65% | 990.5 hPa | - | 2.68 m/s, 63° | - | - |
| 1778002571 | 18.33° C | 64% | 990.5 hPa | - | 2.68 m/s, 67° | - | - |
| 1778002451 | 18.33° C | 64% | 990.4 hPa | - | 2.68 m/s, 71° | - | - |
| 1778002331 | 18.33° C | 64% | 990.4 hPa | - | 3.13 m/s, 70° | - | - |
| 1778002211 | 18.33° C | 64% | 990.4 hPa | - | 3.13 m/s, 63° | - | - |
| 1778002092 | 18.33° C | 64% | 990.4 hPa | - | 3.58 m/s, 56° | - | - |
| 1778001970 | 18.33° C | 64% | 990.4 hPa | - | 3.58 m/s, 57° | - | - |
| 1778001851 | 18.33° C | 64% | 990.4 hPa | - | 3.13 m/s, 56° | - | - |
| 1778001731 | 18.33° C | 64% | 990.4 hPa | - | 2.68 m/s, 60° | - | - |
| 1778001611 | 18.33° C | 64% | 990.4 hPa | - | 2.68 m/s, 66° | - | - |
| 1778001490 | 18.33° C | 64% | 990.5 hPa | - | 3.58 m/s, 63° | - | - |
| 1778001242 | 18.33° C | 64% | 990.5 hPa | - | 3.58 m/s, 60° | - | - |
| 1778001122 | 18.33° C | 64% | 990.5 hPa | - | 3.58 m/s, 57° | - | - |
| 1778001002 | 18.33° C | 64% | 990.5 hPa | - | 3.13 m/s, 45° | - | - |
| 1778000882 | 18.89° C | 64% | 990.5 hPa | - | 3.58 m/s, 49° | - | - |
| 1778000762 | 18.89° C | 64% | 990.5 hPa | - | 2.68 m/s, 54° | - | - |
| 1778000642 | 18.89° C | 64% | 990.5 hPa | - | 3.13 m/s, 57° | - | - |
* Rain since midnight (hover to see other rain measurements)
** Current wind speed in m/s (hover to see current wind gust speed)